Weather in Yephimovsky

Russia / Saint-Petersburg and Leningrad Oblast     59°29′53″N   34°39′48″E
temp.,
°C
wind,
m/s
gust,
m/s
humid.,
%
clouds,
%
prec.,
mm/h
press.,
hPa
HPBL,
m
6 may, thu
thu600:00+2ese31089100 0.0 1005346
03:00+2ese379594 0.1 1004211
06:00+4ese41098100 0.1 1001406
09:00+5se51398100 5.1 998555
12:00+12se51282100 0.2 9941136
15:00+13s71483100 2.4 9911567
18:00+5sw51294100 2.1 993770
21:00+6sw51195100 2.9 9961103
7 may, fri
fri700:00+5sw6128975 0.5 9981031
03:00+4sw61294100 0.9 9991041
06:00+4ssw51194100 0.2 10011000
09:00+4ssw51192100 0.5 10021102
12:00+7sw597897 0.4 10041232
15:00+8wsw4107398 1.1 10051482
18:00+9sw486712 0.5 10051525
21:00+4ssw258822 0.5 100792
8 may, sat
sat800:00+2s2795100 0.0 1008142
03:00+3ese2793100 0.0 1007159
06:00+4ese3898100 2.4 1004327
09:00+6se41097100 4.8 1001914
12:00+7se41097100 0.8 1000862
15:00+8se4996100 1.4 999572
18:00+6ese3799100 3.9 997466
21:00+6ene1199100 6.9 99540
9 may, sun
sun900:00+5wnw2599100 1.6 994267
03:00+1wnw61598100 7.1 996578
06:00+1wnw81697100 6.1 10001033
09:00+3wnw8168270 7.1 10051210
12:00+7wnw713745 0.0 10101626
15:00+9wnw512561 0.1 10142099
18:00+9w49563 0.0 10171646
21:00+4sw25845 0.0 101976
10 may, mon
mon1000:00+3sw3138746 0.0 1020293
03:00+3ssw31284100 0.0 1021301
06:00+4ssw3128494 0.0 1022362
09:00+9ssw51170100 0.0 10221030
12:00+11sw51071100 0.0 1023887
15:00+14sw596649 0.0 1022884
18:00+16ssw4966100 0.0 10221119
21:00+12s41279100 0.0 1023448